SCP
0 0 0 0 0 0 0 0 0 0 0 0 0 0 0 0 0 0 0 0 0 0
0 0 0 0 0 0 0 0 0 0 0 0 0 0 0 0 0 0 0 0 0 0
0 0 0 0 0 0 0 0 0 0 0 0 0 0 0 0 0 0 0 0 0 0
0 0 0 0 0 0 0 0 0 0 0 0 0 0 0 0 0 0 0 0 0 0
0 0 0 0 0 0 0 0 0 0 0 0 0 0 0 0 0 0 0 0 0 0
0 0 0 0 0 0 0 0 0 0 0 0 0 0 0 0 0 0 0 0 0 0
0 0 0 0 0 0 0 0 0 0 0 0 0 0 0 0 0 0 0 0 0 0
0 0 0 0 0 0 0 0 0 0 0 0 0 0 0 0 0 0 0 0 0 0
0 0 0 0 0 0 0 0 0 0 0 0 0 0 0 0 0 0 0 0 0 0
0 0 0 0 0 0 0 0 0 0 0 0 0 0 0 0 0 0 0 0 0 0
0 0 0 0 0 0 0 0 0 0 0 0 0 0 0 0 0 0 0 0 0 0
0 0 0 0 0 0 0 0 0 0 0 0 0 0 0 0 0 0 0 0 0 0
0 0 0 0 0 0 0 0 0 0 0 0 0 0 0 0 0 0 0 0 0 0
0 0 0 0 0 0 0 0 0 0 0 0 0 0 0 0 0 0 0 0 0 0
Wind_Speed_500mb
47 51 54 55 54 54 51 49 47 53 59 60 59 59 59 60 60 62 63 64 62 61
53 54 54 52 53 53 50 47 45 46 52 55 58 59 61 64 65 66 66 68 67 66
54 53 51 52 51 50 47 44 46 45 47 50 53 56 60 65 66 69 70 70 72 71
45 44 45 47 45 44 43 41 42 43 44 47 49 52 59 65 66 70 71 72 74 75
35 37 41 42 41 42 40 38 38 40 43 45 46 47 54 59 63 68 70 69 70 74
35 39 42 43 43 42 39 38 38 39 41 42 44 46 50 53 56 59 61 62 65 66
42 42 44 46 46 44 41 40 41 41 41 42 44 48 48 50 53 54 54 55 58 59
48 50 49 49 49 47 45 44 45 45 45 45 48 50 49 49 50 52 52 54 56 57
52 49 47 48 49 50 49 49 51 52 53 53 54 55 52 52 52 52 54 55 57 57
54 52 47 47 49 49 51 54 56 57 59 61 60 61 61 60 62 57 56 57 58 58
58 55 50 47 45 44 48 53 57 60 63 67 65 65 67 65 67 69 63 60 59 58
60 58 54 51 51 54 58 59 62 62 62 66 66 64 68 69 70 70 66 57 55 56
60 59 58 56 59 63 68 71 70 63 58 59 64 60 62 63 66 65 61 58 57 51
55 60 62 66 70 70 64 62 62 67 68 70 68 66 64 61 64 66 62 57 49 43
Wind_Direction_500mb
292 296 297 301 300 294 289 284 277 274 272 271 271 271 270 268 267 267 266 267 268 270
290 292 297 299 296 292 291 290 283 274 268 268 268 267 267 265 265 266 265 265 265 266
290 289 290 291 293 294 294 291 287 280 274 271 268 266 264 264 263 263 263 263 263 263
291 287 285 290 295 296 294 293 287 284 279 275 271 266 263 263 263 261 262 261 261 262
301 295 295 298 297 295 294 292 292 288 284 281 276 271 267 267 265 265 264 266 265 266
324 311 305 301 297 293 292 294 294 293 293 290 285 278 273 270 269 268 269 269 269 269
329 315 307 301 296 290 288 290 293 294 294 293 290 284 280 275 273 272 272 272 271 271
323 314 308 303 296 288 285 285 289 290 292 292 289 287 282 278 275 273 273 275 274 273
326 313 306 301 298 290 285 286 285 286 287 287 287 288 285 279 273 271 272 274 276 277
321 313 307 301 296 295 291 287 287 287 285 283 282 283 285 285 280 275 274 275 277 280
314 308 306 302 303 303 300 296 293 289 288 288 286 287 287 286 283 279 276 277 281 286
308 304 303 301 302 303 303 305 304 298 294 292 293 291 288 286 286 285 285 286 287 292
307 305 306 305 304 307 306 306 305 296 296 298 299 299 292 285 283 283 284 282 281 282
309 308 307 308 308 308 308 307 306 301 300 299 299 296 289 285 282 282 282 282 287 289
Wind_Speed_850mb
47 51 54 55 54 54 51 49 47 53 59 60 59 59 59 60 60 62 63 64 62 61
53 54 54 52 53 53 50 47 45 46 52 55 58 59 61 64 65 66 66 68 67 66
54 53 51 52 51 50 47 44 46 45 47 50 53 56 60 65 66 69 70 70 72 71
45 44 45 47 45 44 43 41 42 43 44 47 49 52 59 65 66 70 71 72 74 75
35 37 41 42 41 42 40 38 38 40 43 45 46 47 54 59 63 68 70 69 70 74
35 39 42 43 43 42 39 38 38 39 41 42 44 46 50 53 56 59 61 62 65 66
42 42 44 46 46 44 41 40 41 41 41 42 44 48 48 50 53 54 54 55 58 59
48 50 49 49 49 47 45 44 45 45 45 45 48 50 49 49 50 52 52 54 56 57
52 49 47 48 49 50 49 49 51 52 53 53 54 55 52 52 52 52 54 55 57 57
54 52 47 47 49 49 51 54 56 57 59 61 60 61 61 60 62 57 56 57 58 58
58 55 50 47 45 44 48 53 57 60 63 67 65 65 67 65 67 69 63 60 59 58
60 58 54 51 51 54 58 59 62 62 62 66 66 64 68 69 70 70 66 57 55 56
60 59 58 56 59 63 68 71 70 63 58 59 64 60 62 63 66 65 61 58 57 51
55 60 62 66 70 70 64 62 62 67 68 70 68 66 64 61 64 66 62 57 49 43
Wind_Direction_850mb
292 296 297 301 300 294 289 284 277 274 272 271 271 271 270 268 267 267 266 267 268 270
290 292 297 299 296 292 291 290 283 274 268 268 268 267 267 265 265 266 265 265 265 266
290 289 290 291 293 294 294 291 287 280 274 271 268 266 264 264 263 263 263 263 263 263
291 287 285 290 295 296 294 293 287 284 279 275 271 266 263 263 263 261 262 261 261 262
301 295 295 298 297 295 294 292 292 288 284 281 276 271 267 267 265 265 264 266 265 266
324 311 305 301 297 293 292 294 294 293 293 290 285 278 273 270 269 268 269 269 269 269
329 315 307 301 296 290 288 290 293 294 294 293 290 284 280 275 273 272 272 272 271 271
323 314 308 303 296 288 285 285 289 290 292 292 289 287 282 278 275 273 273 275 274 273
326 313 306 301 298 290 285 286 285 286 287 287 287 288 285 279 273 271 272 274 276 277
321 313 307 301 296 295 291 287 287 287 285 283 282 283 285 285 280 275 274 275 277 280
314 308 306 302 303 303 300 296 293 289 288 288 286 287 287 286 283 279 276 277 281 286
308 304 303 301 302 303 303 305 304 298 294 292 293 291 288 286 286 285 285 286 287 292
307 305 306 305 304 307 306 306 305 296 296 298 299 299 292 285 283 283 284 282 281 282
309 308 307 308 308 308 308 307 306 301 300 299 299 296 289 285 282 282 282 282 287 289